Time,TemperatureF,DewpointF,PressureIn,WindDirection,WindDirectionDegrees,WindSpeedMPH,WindSpeedGustMPH,Humidity,HourlyPrecipIn,Conditions,Clouds,dailyrainin,SoftwareType,DateUTC
2013-09-16 00:02:00,57.7,52.0,24.17,South,180,28.0,34.0,81,0.00,,,0.00,meteohub,2013-09-16 06:02:00,
2013-09-16 00:07:00,57.7,52.0,24.18,South,180,28.0,32.0,81,0.00,,,0.00,meteohub,2013-09-16 06:07:00,
2013-09-16 00:12:00,57.4,52.0,24.17,South,180,25.0,32.0,82,0.00,,,0.00,meteohub,2013-09-16 06:12:00,
2013-09-16 00:17:00,57.4,52.0,24.18,South,180,27.0,28.0,82,0.00,,,0.00,meteohub,2013-09-16 06:17:00,
2013-09-16 00:22:00,57.6,52.2,24.18,South,180,28.0,28.0,82,0.00,,,0.00,meteohub,2013-09-16 06:22:00,
2013-09-16 00:27:00,57.6,52.2,24.18,SSE,158,21.0,30.0,82,0.00,,,0.00,meteohub,2013-09-16 06:27:00,
2013-09-16 00:32:00,57.6,52.2,24.18,South,180,21.0,30.0,82,0.00,,,0.00,meteohub,2013-09-16 06:32:00,
2013-09-16 00:37:00,57.6,52.2,24.18,South,180,24.0,30.0,82,0.00,,,0.00,meteohub,2013-09-16 06:37:00,
2013-09-16 00:42:00,57.0,52.0,24.18,SE,135,21.0,28.0,83,0.00,,,0.00,meteohub,2013-09-16 06:42:00,
2013-09-16 00:47:00,57.0,52.2,24.17,South,180,22.0,28.0,84,0.00,,,0.00,meteohub,2013-09-16 06:47:00,
2013-09-16 00:52:00,57.0,52.2,24.17,South,180,23.0,28.0,84,0.00,,,0.00,meteohub,2013-09-16 06:52:00,
2013-09-16 00:57:00,56.7,52.2,24.17,South,180,25.0,26.0,85,0.00,,,0.00,meteohub,2013-09-16 06:57:00,
2013-09-16 01:02:00,56.7,51.8,24.17,South,180,21.0,26.0,84,0.00,,,0.00,meteohub,2013-09-16 07:02:00,
2013-09-16 01:07:00,56.7,51.8,24.17,South,180,21.0,27.0,84,0.00,,,0.00,meteohub,2013-09-16 07:07:00,
2013-09-16 01:12:00,56.5,52.0,24.17,South,180,22.0,27.0,85,0.00,,,0.00,meteohub,2013-09-16 07:12:00,
2013-09-16 01:17:00,56.5,52.0,24.17,South,180,23.0,23.0,85,0.00,,,0.00,meteohub,2013-09-16 07:17:00,
2013-09-16 01:22:00,56.5,52.0,24.17,South,180,23.0,23.0,85,0.00,,,0.00,meteohub,2013-09-16 07:22:00,
2013-09-16 01:27:00,56.1,52.0,24.17,South,180,21.0,24.0,86,0.00,,,0.00,meteohub,2013-09-16 07:27:00,
2013-09-16 01:32:00,56.1,52.0,24.17,South,180,23.0,24.0,86,0.00,,,0.00,meteohub,2013-09-16 07:32:00,
2013-09-16 01:37:00,56.1,52.0,24.16,South,180,23.0,30.0,86,0.00,,,0.00,meteohub,2013-09-16 07:37:00,
2013-09-16 01:42:00,55.8,52.0,24.16,South,180,21.0,30.0,87,0.00,,,0.00,meteohub,2013-09-16 07:42:00,
2013-09-16 01:47:00,55.8,52.0,24.16,South,180,22.0,30.0,87,0.00,,,0.00,meteohub,2013-09-16 07:47:00,
2013-09-16 01:52:00,55.8,52.3,24.16,South,180,22.0,25.0,88,0.00,,,0.00,meteohub,2013-09-16 07:52:00,
2013-09-16 01:57:00,55.4,52.0,24.15,SSE,158,23.0,25.0,88,0.00,,,0.00,meteohub,2013-09-16 07:57:00,
2013-09-16 02:02:00,55.2,52.0,24.16,South,180,29.0,29.0,89,0.00,,,0.00,meteohub,2013-09-16 08:02:00,
2013-09-16 02:07:00,55.2,52.0,24.15,South,180,29.0,29.0,89,0.00,,,0.00,meteohub,2013-09-16 08:07:00,
2013-09-16 02:12:00,55.0,52.2,24.15,South,180,28.0,31.0,90,0.00,,,0.00,meteohub,2013-09-16 08:12:00,
2013-09-16 02:17:00,55.0,51.8,24.15,South,180,30.0,33.0,89,0.00,,,0.00,meteohub,2013-09-16 08:17:00,
2013-09-16 02:22:00,55.2,52.0,24.15,South,180,28.0,33.0,89,0.00,,,0.00,meteohub,2013-09-16 08:22:00,
2013-09-16 02:27:00,55.0,51.8,24.14,South,180,25.0,33.0,89,0.00,,,0.00,meteohub,2013-09-16 08:27:00,
2013-09-16 02:32:00,55.2,52.0,24.14,South,180,31.0,33.0,89,0.00,,,0.00,meteohub,2013-09-16 08:32:00,
2013-09-16 02:37:00,55.4,52.0,24.14,South,180,34.0,34.0,88,0.00,,,0.00,meteohub,2013-09-16 08:37:00,
2013-09-16 02:42:00,55.2,52.0,24.14,South,180,34.0,34.0,89,0.00,,,0.00,meteohub,2013-09-16 08:42:00,
2013-09-16 02:47:00,55.2,51.8,24.14,South,180,32.0,36.0,88,0.00,,,0.00,meteohub,2013-09-16 08:47:00,
2013-09-16 02:52:00,55.0,51.8,24.14,South,180,31.0,36.0,89,0.00,,,0.00,meteohub,2013-09-16 08:52:00,
2013-09-16 02:57:00,55.0,51.8,24.14,SSW,203,31.0,36.0,89,0.00,,,0.00,meteohub,2013-09-16 08:57:00,
2013-09-16 03:02:00,55.0,52.2,24.14,South,180,31.0,34.0,90,0.00,,,0.00,meteohub,2013-09-16 09:02:00,
2013-09-16 03:07:00,55.0,52.2,24.14,South,180,31.0,33.0,90,0.00,,,0.00,meteohub,2013-09-16 09:07:00,
2013-09-16 03:12:00,54.7,52.2,24.13,South,180,35.0,35.0,91,0.00,,,0.00,meteohub,2013-09-16 09:12:00,
2013-09-16 03:17:00,54.3,52.0,24.13,South,180,30.0,35.0,92,0.00,,,0.00,meteohub,2013-09-16 09:17:00,
2013-09-16 03:22:00,54.3,52.0,24.14,South,180,27.0,35.0,92,0.00,,,0.00,meteohub,2013-09-16 09:22:00,
2013-09-16 03:27:00,54.3,52.0,24.13,South,180,36.0,36.0,92,0.00,,,0.00,meteohub,2013-09-16 09:27:00,
2013-09-16 03:32:00,54.5,52.0,24.13,South,180,34.0,36.0,91,0.00,,,0.00,meteohub,2013-09-16 09:32:00,
2013-09-16 03:37:00,54.7,51.8,24.13,South,180,33.0,36.0,90,0.00,,,0.00,meteohub,2013-09-16 09:37:00,
2013-09-16 03:42:00,54.9,52.0,24.14,South,180,34.0,36.0,90,0.00,,,0.00,meteohub,2013-09-16 09:42:00,
2013-09-16 03:47:00,55.0,51.8,24.14,South,180,34.0,36.0,89,0.00,,,0.00,meteohub,2013-09-16 09:47:00,
2013-09-16 03:52:00,54.9,52.0,24.14,South,180,32.0,36.0,90,0.00,,,0.00,meteohub,2013-09-16 09:52:00,
2013-09-16 03:57:00,54.7,52.2,24.14,South,180,29.0,36.0,91,0.00,,,0.00,meteohub,2013-09-16 09:57:00,
2013-09-16 04:02:00,54.5,52.0,24.15,South,180,24.0,36.0,91,0.00,,,0.00,meteohub,2013-09-16 10:02:00,
2013-09-16 04:07:00,54.5,52.0,24.14,South,180,24.0,32.0,91,0.00,,,0.00,meteohub,2013-09-16 10:07:00,
2013-09-16 04:12:00,54.5,52.2,24.15,South,180,24.0,30.0,92,0.00,,,0.00,meteohub,2013-09-16 10:12:00,
2013-09-16 04:17:00,54.3,52.0,24.15,South,180,25.0,27.0,92,0.00,,,0.00,meteohub,2013-09-16 10:17:00,
2013-09-16 04:22:00,54.3,52.0,24.14,South,180,27.0,27.0,92,0.00,,,0.00,meteohub,2013-09-16 10:22:00,
2013-09-16 04:27:00,54.3,51.8,24.15,South,180,27.0,27.0,91,0.00,,,0.00,meteohub,2013-09-16 10:27:00,
2013-09-16 04:32:00,54.5,52.0,24.14,South,180,26.0,27.0,91,0.00,,,0.00,meteohub,2013-09-16 10:32:00,
2013-09-16 04:37:00,54.5,52.0,24.14,South,180,24.0,27.0,91,0.00,,,0.00,meteohub,2013-09-16 10:37:00,
2013-09-16 04:42:00,54.3,52.0,24.15,South,180,21.0,27.0,92,0.00,,,0.00,meteohub,2013-09-16 10:42:00,
2013-09-16 04:47:00,54.1,51.8,24.15,South,180,23.0,27.0,92,0.00,,,0.00,meteohub,2013-09-16 10:47:00,
2013-09-16 04:52:00,54.3,51.8,24.15,South,180,23.0,25.0,91,0.00,,,0.00,meteohub,2013-09-16 10:52:00,
2013-09-16 04:57:00,54.3,51.8,24.14,South,180,23.0,24.0,91,0.00,,,0.00,meteohub,2013-09-16 10:57:00,
2013-09-16 05:02:00,54.3,51.8,24.15,South,180,24.0,26.0,91,0.00,,,0.00,meteohub,2013-09-16 11:02:00,
2013-09-16 05:07:00,54.3,51.8,24.15,South,180,24.0,26.0,91,0.00,,,0.00,meteohub,2013-09-16 11:07:00,
2013-09-16 05:12:00,54.0,51.6,24.15,South,180,23.0,26.0,92,0.00,,,0.00,meteohub,2013-09-16 11:12:00,
2013-09-16 05:17:00,54.0,51.6,24.15,South,180,25.0,25.0,92,0.00,,,0.00,meteohub,2013-09-16 11:17:00,
2013-09-16 05:22:00,54.0,51.6,24.16,South,180,21.0,25.0,92,0.00,,,0.00,meteohub,2013-09-16 11:22:00,
2013-09-16 05:27:00,53.8,51.4,24.16,South,180,22.0,25.0,92,0.00,,,0.00,meteohub,2013-09-16 11:27:00,
2013-09-16 05:32:00,53.6,51.3,24.16,South,180,16.0,25.0,92,0.00,,,0.00,meteohub,2013-09-16 11:32:00,
2013-09-16 05:37:00,53.4,51.4,24.16,South,180,15.0,23.0,93,0.00,,,0.00,meteohub,2013-09-16 11:37:00,
2013-09-16 05:42:00,53.4,51.1,24.17,South,180,11.0,23.0,92,0.00,,,0.00,meteohub,2013-09-16 11:42:00,
2013-09-16 05:47:00,53.6,51.3,24.16,South,180,12.0,17.0,92,0.00,,,0.00,meteohub,2013-09-16 11:47:00,
2013-09-16 05:52:00,54.0,51.1,24.17,South,180,13.0,17.0,90,0.00,,,0.00,meteohub,2013-09-16 11:52:00,
2013-09-16 05:57:00,54.0,50.7,24.17,South,180,11.0,16.0,89,0.00,,,0.00,meteohub,2013-09-16 11:57:00,
2013-09-16 06:02:00,54.1,50.7,24.17,South,180,14.0,16.0,88,0.00,,,0.00,meteohub,2013-09-16 12:02:00,
2013-09-16 06:07:00,54.1,50.7,24.17,South,180,14.0,16.0,88,0.00,,,0.00,meteohub,2013-09-16 12:07:00,
2013-09-16 06:12:00,53.8,50.5,24.17,SE,135,15.0,15.0,89,0.00,,,0.00,meteohub,2013-09-16 12:12:00,
2013-09-16 06:17:00,53.1,50.7,24.16,SE,135,11.0,15.0,92,0.00,,,0.00,meteohub,2013-09-16 12:17:00,
2013-09-16 06:22:00,53.1,51.1,24.16,SE,135,12.0,15.0,93,0.00,,,0.00,meteohub,2013-09-16 12:22:00,
2013-09-16 06:27:00,52.9,50.9,24.16,SSE,158,11.0,17.0,93,0.00,,,0.00,meteohub,2013-09-16 12:27:00,
2013-09-16 06:32:00,52.9,50.5,24.16,SW,225,10.0,17.0,92,0.00,,,0.00,meteohub,2013-09-16 12:32:00,
2013-09-16 06:37:00,56.1,49.6,24.15,SW,225,21.0,21.0,79,0.00,,,0.00,meteohub,2013-09-16 12:37:00,
2013-09-16 06:42:00,58.3,48.9,24.16,SW,225,22.0,23.0,71,0.00,,,0.00,meteohub,2013-09-16 12:42:00,
2013-09-16 06:47:00,59.2,49.1,24.16,SW,225,18.0,23.0,69,0.00,,,0.00,meteohub,2013-09-16 12:47:00,
2013-09-16 06:52:00,58.3,48.9,24.15,SW,225,17.0,23.0,71,0.00,,,0.00,meteohub,2013-09-16 12:52:00,
2013-09-16 06:57:00,58.3,48.9,24.15,SW,225,21.0,23.0,71,0.00,,,0.00,meteohub,2013-09-16 12:57:00,
2013-09-16 07:02:00,58.5,48.7,24.15,South,180,16.0,23.0,70,0.00,,,0.00,meteohub,2013-09-16 13:02:00,
2013-09-16 07:07:00,58.5,48.7,24.15,South,180,16.0,21.0,70,0.00,,,0.00,meteohub,2013-09-16 13:07:00,
2013-09-16 07:12:00,57.2,48.9,24.15,SSW,203,15.0,21.0,74,0.00,,,0.00,meteohub,2013-09-16 13:12:00,
2013-09-16 07:17:00,57.2,48.9,24.15,SW,225,14.0,18.0,74,0.00,,,0.00,meteohub,2013-09-16 13:17:00,
2013-09-16 07:22:00,57.7,48.7,24.15,SSW,203,20.0,20.0,72,0.00,,,0.00,meteohub,2013-09-16 13:22:00,
2013-09-16 07:27:00,58.3,49.3,24.15,South,180,17.0,20.0,72,0.00,,,0.00,meteohub,2013-09-16 13:27:00,
2013-09-16 07:32:00,58.1,49.8,24.15,South,180,15.0,20.0,74,0.00,,,0.00,meteohub,2013-09-16 13:32:00,
2013-09-16 07:37:00,58.1,49.8,24.15,South,180,15.0,20.0,74,0.00,,,0.00,meteohub,2013-09-16 13:37:00,
2013-09-16 07:42:00,57.9,50.0,24.15,South,180,14.0,19.0,75,0.00,,,0.00,meteohub,2013-09-16 13:42:00,
2013-09-16 07:47:00,58.1,50.5,24.14,South,180,19.0,19.0,76,0.00,,,0.00,meteohub,2013-09-16 13:47:00,
2013-09-16 07:52:00,57.7,50.2,24.14,South,180,18.0,21.0,76,0.00,,,0.00,meteohub,2013-09-16 13:52:00,
2013-09-16 07:57:00,57.6,50.4,24.14,South,180,17.0,21.0,77,0.00,,,0.00,meteohub,2013-09-16 13:57:00,
2013-09-16 08:02:00,57.7,50.2,24.14,South,180,18.0,21.0,76,0.00,,,0.00,meteohub,2013-09-16 14:02:00,
2013-09-16 08:07:00,57.7,50.2,24.13,South,180,18.0,19.0,76,0.00,,,0.00,meteohub,2013-09-16 14:07:00,
2013-09-16 08:12:00,58.3,50.0,24.14,South,180,21.0,21.0,74,0.00,,,0.00,meteohub,2013-09-16 14:12:00,
2013-09-16 08:17:00,59.0,50.0,24.13,South,180,25.0,25.0,72,0.00,,,0.00,meteohub,2013-09-16 14:17:00,
2013-09-16 08:22:00,59.4,50.0,24.14,South,180,23.0,26.0,71,0.00,,,0.00,meteohub,2013-09-16 14:22:00,
2013-09-16 08:27:00,59.7,50.4,24.14,South,180,21.0,26.0,71,0.00,,,0.00,meteohub,2013-09-16 14:27:00,
2013-09-16 08:32:00,59.7,50.4,24.14,South,180,21.0,26.0,71,0.00,,,0.00,meteohub,2013-09-16 14:32:00,
2013-09-16 08:37:00,59.9,50.9,24.14,South,180,18.0,23.0,72,0.00,,,0.00,meteohub,2013-09-16 14:37:00,
2013-09-16 08:42:00,59.7,50.7,24.15,SE,135,17.0,23.0,72,0.00,,,0.00,meteohub,2013-09-16 14:42:00,
2013-09-16 08:47:00,60.1,50.7,24.14,SE,135,17.0,21.0,71,0.00,,,0.00,meteohub,2013-09-16 14:47:00,
2013-09-16 08:52:00,60.4,50.2,24.14,SE,135,20.0,21.0,69,0.00,,,0.00,meteohub,2013-09-16 14:52:00,
2013-09-16 08:57:00,60.6,50.0,24.15,SE,135,20.0,22.0,68,0.00,,,0.00,meteohub,2013-09-16 14:57:00,
2013-09-16 09:02:00,61.0,50.4,24.14,SE,135,21.0,23.0,68,0.00,,,0.00,meteohub,2013-09-16 15:02:00,
2013-09-16 09:07:00,61.0,50.4,24.14,SE,135,21.0,23.0,68,0.00,,,0.00,meteohub,2013-09-16 15:07:00,
2013-09-16 09:12:00,60.6,50.4,24.14,South,180,25.0,27.0,69,0.00,,,0.00,meteohub,2013-09-16 15:12:00,
2013-09-16 09:17:00,61.0,50.0,24.14,SSE,158,27.0,27.0,67,0.00,,,0.00,meteohub,2013-09-16 15:17:00,
2013-09-16 09:22:00,61.5,50.5,24.14,SE,135,23.0,29.0,67,0.00,,,0.00,meteohub,2013-09-16 15:22:00,
2013-09-16 09:27:00,61.9,50.4,24.14,SE,135,23.0,29.0,66,0.00,,,0.00,meteohub,2013-09-16 15:27:00,
2013-09-16 09:32:00,63.1,49.5,24.14,South,180,27.0,29.0,61,0.00,,,0.00,meteohub,2013-09-16 15:32:00,
2013-09-16 09:37:00,63.9,49.3,24.14,South,180,30.0,30.0,59,0.00,,,0.00,meteohub,2013-09-16 15:37:00,
2013-09-16 09:42:00,64.2,49.1,24.14,South,180,28.0,31.0,58,0.00,,,0.00,meteohub,2013-09-16 15:42:00,
2013-09-16 09:47:00,63.9,49.3,24.13,South,180,30.0,31.0,59,0.00,,,0.00,meteohub,2013-09-16 15:47:00,
2013-09-16 09:52:00,64.0,49.5,24.13,South,180,28.0,32.0,59,0.00,,,0.00,meteohub,2013-09-16 15:52:00,
2013-09-16 09:57:00,64.6,49.5,24.13,South,180,27.0,34.0,58,0.00,,,0.00,meteohub,2013-09-16 15:57:00,
2013-09-16 10:02:00,65.8,48.7,24.14,South,180,30.0,34.0,54,0.00,,,0.00,meteohub,2013-09-16 16:02:00,
2013-09-16 10:07:00,65.8,48.7,24.14,South,180,30.0,34.0,54,0.00,,,0.00,meteohub,2013-09-16 16:07:00,
2013-09-16 10:12:00,65.8,49.6,24.13,South,180,26.0,30.0,56,0.00,,,0.00,meteohub,2013-09-16 16:12:00,
2013-09-16 10:17:00,65.8,49.6,24.14,South,180,27.0,30.0,56,0.00,,,0.00,meteohub,2013-09-16 16:17:00,
2013-09-16 10:22:00,66.4,50.2,24.14,SE,135,23.0,30.0,56,0.00,,,0.00,meteohub,2013-09-16 16:22:00,
2013-09-16 10:27:00,66.9,49.3,24.14,South,180,30.0,30.0,53,0.00,,,0.00,meteohub,2013-09-16 16:27:00,
2013-09-16 10:32:00,67.6,48.9,24.14,South,180,30.0,30.0,51,0.00,,,0.00,meteohub,2013-09-16 16:32:00,
2013-09-16 10:37:00,68.0,48.7,24.14,South,180,28.0,30.0,50,0.00,,,0.00,meteohub,2013-09-16 16:37:00,
2013-09-16 10:42:00,68.4,49.5,24.14,South,180,27.0,30.0,51,0.00,,,0.00,meteohub,2013-09-16 16:42:00,
2013-09-16 10:47:00,68.5,48.6,24.13,South,180,27.0,30.0,49,0.00,,,0.00,meteohub,2013-09-16 16:47:00,
2013-09-16 10:52:00,68.5,48.6,24.13,South,180,31.0,31.0,49,0.00,,,0.00,meteohub,2013-09-16 16:52:00,
2013-09-16 10:57:00,68.9,48.4,24.13,South,180,27.0,31.0,48,0.00,,,0.00,meteohub,2013-09-16 16:57:00,
2013-09-16 11:02:00,68.9,48.4,24.13,South,180,31.0,31.0,48,0.00,,,0.00,meteohub,2013-09-16 17:02:00,
2013-09-16 11:07:00,68.9,48.4,24.13,South,180,31.0,31.0,48,0.00,,,0.00,meteohub,2013-09-16 17:07:00,
2013-09-16 11:17:00,70.7,47.7,24.12,South,180,28.0,31.0,44,0.00,,,0.00,meteohub,2013-09-16 17:17:00,
2013-09-16 11:22:00,70.3,48.0,24.12,SSE,158,28.0,31.0,45,0.00,,,0.00,meteohub,2013-09-16 17:22:00,
2013-09-16 11:27:00,70.5,46.9,24.12,South,180,34.0,34.0,43,0.00,,,0.00,meteohub,2013-09-16 17:27:00,
2013-09-16 11:32:00,72.0,47.7,24.12,South,180,29.0,35.0,42,0.00,,,0.00,meteohub,2013-09-16 17:32:00,
2013-09-16 11:37:00,71.6,47.3,24.12,SE,135,33.0,35.0,42,0.00,,,0.00,meteohub,2013-09-16 17:37:00,
2013-09-16 11:42:00,71.8,48.0,24.12,South,180,28.0,35.0,43,0.00,,,0.00,meteohub,2013-09-16 17:42:00,
2013-09-16 11:47:00,73.0,45.9,24.12,South,180,27.0,34.0,38,0.00,,,0.00,meteohub,2013-09-16 17:47:00,
2013-09-16 11:52:00,72.7,44.2,24.12,South,180,30.0,34.0,36,0.00,,,0.00,meteohub,2013-09-16 17:52:00,
2013-09-16 11:57:00,72.5,44.8,24.12,South,180,28.0,34.0,37,0.00,,,0.00,meteohub,2013-09-16 17:57:00,
2013-09-16 12:02:00,72.9,45.1,24.12,South,180,30.0,34.0,37,0.00,,,0.00,meteohub,2013-09-16 18:02:00,
2013-09-16 12:07:00,72.9,45.1,24.12,South,180,30.0,34.0,37,0.00,,,0.00,meteohub,2013-09-16 18:07:00,
2013-09-16 12:12:00,73.2,43.9,24.12,South,180,24.0,34.0,35,0.00,,,0.00,meteohub,2013-09-16 18:12:00,
2013-09-16 12:17:00,73.2,44.6,24.11,South,180,29.0,34.0,36,0.00,,,0.00,meteohub,2013-09-16 18:17:00,
2013-09-16 12:22:00,73.9,44.6,24.12,South,180,23.0,35.0,35,0.00,,,0.00,meteohub,2013-09-16 18:22:00,
2013-09-16 12:27:00,75.4,42.6,24.12,SW,225,23.0,35.0,31,0.00,,,0.00,meteohub,2013-09-16 18:27:00,
2013-09-16 12:32:00,76.3,40.8,24.12,South,180,20.0,30.0,28,0.00,,,0.00,meteohub,2013-09-16 18:32:00,
2013-09-16 12:37:00,75.0,42.3,24.12,South,180,20.0,29.0,31,0.00,,,0.00,meteohub,2013-09-16 18:37:00,
2013-09-16 12:42:00,74.1,40.6,24.12,SW,225,24.0,27.0,30,0.00,,,0.00,meteohub,2013-09-16 18:42:00,
2013-09-16 12:47:00,75.4,41.7,24.12,South,180,18.0,27.0,30,0.00,,,0.00,meteohub,2013-09-16 18:47:00,
2013-09-16 12:52:00,76.6,41.2,24.12,South,180,25.0,27.0,28,0.00,,,0.00,meteohub,2013-09-16 18:52:00,
2013-09-16 12:57:00,76.3,39.9,24.11,South,180,28.0,28.0,27,0.00,,,0.00,meteohub,2013-09-16 18:57:00,
2013-09-16 13:02:00,75.4,39.0,24.11,SW,225,28.0,29.0,27,0.00,,,0.00,meteohub,2013-09-16 19:02:00,
2013-09-16 13:07:00,75.4,39.0,24.11,SW,225,28.0,29.0,27,0.00,,,0.00,meteohub,2013-09-16 19:07:00,
2013-09-16 13:12:00,73.2,40.8,24.12,SW,225,22.0,29.0,31,0.00,,,0.00,meteohub,2013-09-16 19:12:00,
2013-09-16 13:17:00,73.0,41.4,24.11,South,180,31.0,32.0,32,0.00,,,0.00,meteohub,2013-09-16 19:17:00,
2013-09-16 13:22:00,74.1,42.4,24.11,South,180,26.0,34.0,32,0.00,,,0.00,meteohub,2013-09-16 19:22:00,
2013-09-16 13:27:00,75.7,42.1,24.11,South,180,27.0,34.0,30,0.00,,,0.00,meteohub,2013-09-16 19:27:00,
2013-09-16 13:32:00,77.0,41.4,24.11,South,180,22.0,31.0,28,0.00,,,0.00,meteohub,2013-09-16 19:32:00,
2013-09-16 13:37:00,76.3,39.9,24.11,South,180,24.0,30.0,27,0.00,,,0.00,meteohub,2013-09-16 19:37:00,
2013-09-16 13:42:00,76.6,40.1,24.11,South,180,21.0,29.0,27,0.00,,,0.00,meteohub,2013-09-16 19:42:00,
2013-09-16 13:47:00,76.6,39.2,24.10,South,180,21.0,30.0,26,0.00,,,0.00,meteohub,2013-09-16 19:47:00,
2013-09-16 13:52:00,76.8,39.4,24.10,SW,225,27.0,30.0,26,0.00,,,0.00,meteohub,2013-09-16 19:52:00,
2013-09-16 13:57:00,76.6,39.2,24.10,South,180,23.0,30.0,26,0.00,,,0.00,meteohub,2013-09-16 19:57:00,
2013-09-16 14:02:00,76.8,40.3,24.10,SW,225,23.0,31.0,27,0.00,,,0.00,meteohub,2013-09-16 20:02:00,
2013-09-16 14:07:00,76.8,40.3,24.10,SW,225,23.0,31.0,27,0.00,,,0.00,meteohub,2013-09-16 20:07:00,
2013-09-16 14:12:00,78.3,39.6,24.09,South,180,29.0,30.0,25,0.00,,,0.00,meteohub,2013-09-16 20:12:00,
2013-09-16 14:17:00,77.0,39.6,24.09,South,180,27.0,36.0,26,0.00,,,0.00,meteohub,2013-09-16 20:17:00,
2013-09-16 14:22:00,75.7,40.3,24.10,South,180,24.0,36.0,28,0.00,,,0.00,meteohub,2013-09-16 20:22:00,
2013-09-16 14:27:00,75.7,41.2,24.10,South,180,25.0,36.0,29,0.00,,,0.00,meteohub,2013-09-16 20:27:00,
2013-09-16 14:32:00,77.0,39.6,24.09,WSW,248,28.0,32.0,26,0.00,,,0.00,meteohub,2013-09-16 20:32:00,
2013-09-16 14:37:00,76.6,40.1,24.09,SSW,203,22.0,32.0,27,0.00,,,0.00,meteohub,2013-09-16 20:37:00,
2013-09-16 14:42:00,77.4,39.7,24.08,South,180,32.0,32.0,26,0.00,,,0.00,meteohub,2013-09-16 20:42:00,
2013-09-16 14:47:00,77.9,39.2,24.09,SSW,203,28.0,36.0,25,0.00,,,0.00,meteohub,2013-09-16 20:47:00,
2013-09-16 14:52:00,77.0,39.6,24.08,SW,225,30.0,36.0,26,0.00,,,0.00,meteohub,2013-09-16 20:52:00,
2013-09-16 14:57:00,77.5,39.9,24.07,South,180,27.0,36.0,26,0.00,,,0.00,meteohub,2013-09-16 20:57:00,
2013-09-16 15:02:00,77.2,38.7,24.06,South,180,38.0,38.0,25,0.00,,,0.00,meteohub,2013-09-16 21:02:00,
2013-09-16 15:07:00,77.2,38.7,24.06,South,180,38.0,38.0,25,0.00,,,0.00,meteohub,2013-09-16 21:07:00,
2013-09-16 15:12:00,75.7,40.3,24.06,South,180,40.0,40.0,28,0.00,,,0.00,meteohub,2013-09-16 21:12:00,
2013-09-16 15:17:00,74.3,40.8,24.06,South,180,31.0,40.0,30,0.00,,,0.00,meteohub,2013-09-16 21:17:00,
2013-09-16 15:22:00,74.7,41.2,24.06,South,180,27.0,40.0,30,0.00,,,0.00,meteohub,2013-09-16 21:22:00,
2013-09-16 15:27:00,75.9,39.6,24.04,South,180,34.0,40.0,27,0.00,,,0.00,meteohub,2013-09-16 21:27:00,
2013-09-16 15:32:00,75.9,40.5,24.05,South,180,36.0,39.0,28,0.00,,,0.00,meteohub,2013-09-16 21:32:00,
2013-09-16 15:37:00,75.9,39.6,24.06,South,180,36.0,41.0,27,0.00,,,0.00,meteohub,2013-09-16 21:37:00,
2013-09-16 15:42:00,74.7,40.3,24.06,South,180,40.0,41.0,29,0.00,,,0.00,meteohub,2013-09-16 21:42:00,
2013-09-16 15:47:00,73.6,40.3,24.06,South,180,34.0,46.0,30,0.00,,,0.00,meteohub,2013-09-16 21:47:00,
2013-09-16 15:52:00,73.0,40.6,24.07,South,180,30.0,46.0,31,0.00,,,0.00,meteohub,2013-09-16 21:52:00,
2013-09-16 15:57:00,72.9,41.4,24.06,South,180,33.0,46.0,32,0.00,,,0.00,meteohub,2013-09-16 21:57:00,
2013-09-16 16:02:00,72.9,41.4,24.06,South,180,33.0,38.0,32,0.00,,,0.00,meteohub,2013-09-16 22:02:00,
2013-09-16 16:07:00,72.9,41.4,24.06,South,180,33.0,35.0,32,0.00,,,0.00,meteohub,2013-09-16 22:07:00,
2013-09-16 16:12:00,72.1,38.1,24.08,West,270,27.0,34.0,29,0.00,,,0.00,meteohub,2013-09-16 22:12:00,
2013-09-16 16:17:00,69.6,39.2,24.07,West,270,26.0,33.0,33,0.00,,,0.00,meteohub,2013-09-16 22:17:00,
2013-09-16 16:22:00,72.1,39.0,24.07,WNW,293,27.0,33.0,30,0.00,,,0.00,meteohub,2013-09-16 22:22:00,
2013-09-16 16:27:00,73.0,38.8,24.07,SW,225,23.0,34.0,29,0.00,,,0.00,meteohub,2013-09-16 22:27:00,
2013-09-16 16:32:00,74.5,39.2,24.06,SW,225,30.0,34.0,28,0.00,,,0.00,meteohub,2013-09-16 22:32:00,
2013-09-16 16:37:00,74.5,36.3,24.05,South,180,33.0,35.0,25,0.00,,,0.00,meteohub,2013-09-16 22:37:00,
2013-09-16 16:42:00,73.2,37.2,24.06,WSW,248,35.0,39.0,27,0.00,,,0.00,meteohub,2013-09-16 22:42:00,
2013-09-16 16:47:00,72.9,36.0,24.05,SSW,203,34.0,42.0,26,0.00,,,0.00,meteohub,2013-09-16 22:47:00,
2013-09-16 16:52:00,72.5,34.7,24.06,South,180,34.0,42.0,25,0.00,,,0.00,meteohub,2013-09-16 22:52:00,
2013-09-16 16:57:00,72.7,35.8,24.06,South,180,35.0,42.0,26,0.00,,,0.00,meteohub,2013-09-16 22:57:00,
2013-09-16 17:02:00,72.9,35.1,24.04,South,180,37.0,42.0,25,0.00,,,0.00,meteohub,2013-09-16 23:02:00,
2013-09-16 17:07:00,72.9,35.1,24.05,South,180,37.0,41.0,25,0.00,,,0.00,meteohub,2013-09-16 23:07:00,
2013-09-16 17:12:00,73.4,35.4,24.05,South,180,31.0,41.0,25,0.00,,,0.00,meteohub,2013-09-16 23:12:00,
2013-09-16 17:17:00,73.8,34.7,24.05,South,180,30.0,37.0,24,0.00,,,0.00,meteohub,2013-09-16 23:17:00,
2013-09-16 17:22:00,73.6,33.4,24.05,South,180,28.0,37.0,23,0.00,,,0.00,meteohub,2013-09-16 23:22:00,
2013-09-16 17:27:00,73.4,34.3,24.05,South,180,27.0,34.0,24,0.00,,,0.00,meteohub,2013-09-16 23:27:00,
2013-09-16 17:32:00,72.3,32.4,24.05,SW,225,27.0,34.0,23,0.00,,,0.00,meteohub,2013-09-16 23:32:00,
2013-09-16 17:37:00,71.6,34.9,24.05,South,180,25.0,34.0,26,0.00,,,0.00,meteohub,2013-09-16 23:37:00,
2013-09-16 17:42:00,71.4,33.8,24.06,South,180,21.0,34.0,25,0.00,,,0.00,meteohub,2013-09-16 23:42:00,
2013-09-16 17:47:00,71.2,33.6,24.05,South,180,24.0,27.0,25,0.00,,,0.00,meteohub,2013-09-16 23:47:00,
2013-09-16 17:52:00,72.5,33.6,24.05,South,180,23.0,26.0,24,0.00,,,0.00,meteohub,2013-09-16 23:52:00,
2013-09-16 17:57:00,72.7,33.8,24.05,South,180,26.0,26.0,24,0.00,,,0.00,meteohub,2013-09-16 23:57:00,
2013-09-16 18:02:00,72.7,33.8,24.05,South,180,23.0,27.0,24,0.00,,,0.00,meteohub,2013-09-17 00:02:00,
2013-09-16 18:07:00,72.7,33.8,24.05,South,180,23.0,27.0,24,0.00,,,0.00,meteohub,2013-09-17 00:07:00,
2013-09-16 18:12:00,72.3,33.4,24.05,South,180,25.0,27.0,24,0.00,,,0.00,meteohub,2013-09-17 00:12:00,
2013-09-16 18:17:00,72.1,33.4,24.05,NNE,23,17.0,26.0,24,0.00,,,0.00,meteohub,2013-09-17 00:17:00,
2013-09-16 18:22:00,71.8,33.1,24.05,SW,225,18.0,26.0,24,0.00,,,0.00,meteohub,2013-09-17 00:22:00,
2013-09-16 18:27:00,71.4,33.8,24.05,SW,225,15.0,25.0,25,0.00,,,0.00,meteohub,2013-09-17 00:27:00,
2013-09-16 18:32:00,71.1,34.5,24.05,NNE,23,16.0,22.0,26,0.00,,,0.00,meteohub,2013-09-17 00:32:00,
2013-09-16 18:37:00,70.7,34.2,24.05,SW,225,18.0,22.0,26,0.00,,,0.00,meteohub,2013-09-17 00:37:00,
2013-09-16 18:42:00,70.2,34.7,24.05,SW,225,18.0,20.0,27,0.00,,,0.00,meteohub,2013-09-17 00:42:00,
2013-09-16 18:47:00,70.2,34.7,24.05,SW,225,18.0,20.0,27,0.00,,,0.00,meteohub,2013-09-17 00:47:00,
2013-09-16 18:52:00,69.3,34.7,24.05,SW,225,19.0,20.0,28,0.00,,,0.00,meteohub,2013-09-17 00:52:00,
2013-09-16 18:57:00,69.3,35.6,24.06,SW,225,18.0,22.0,29,0.00,,,0.00,meteohub,2013-09-17 00:57:00,
2013-09-16 19:02:00,69.3,35.6,24.06,SW,225,15.0,22.0,29,0.00,,,0.00,meteohub,2013-09-17 01:02:00,
2013-09-16 19:07:00,69.3,35.6,24.06,SW,225,15.0,22.0,29,0.00,,,0.00,meteohub,2013-09-17 01:07:00,
2013-09-16 19:12:00,68.9,35.4,24.06,SW,225,18.0,21.0,29,0.00,,,0.00,meteohub,2013-09-17 01:12:00,
2013-09-16 19:17:00,68.9,36.1,24.06,SW,225,18.0,20.0,30,0.00,,,0.00,meteohub,2013-09-17 01:17:00,
2013-09-16 19:22:00,68.9,37.0,24.06,SW,225,21.0,21.0,31,0.00,,,0.00,meteohub,2013-09-17 01:22:00,
2013-09-16 19:27:00,68.9,37.0,24.06,SW,225,21.0,21.0,31,0.00,,,0.00,meteohub,2013-09-17 01:27:00,
2013-09-16 19:32:00,68.7,37.6,24.06,SW,225,17.0,22.0,32,0.00,,,0.00,meteohub,2013-09-17 01:32:00,
2013-09-16 19:37:00,68.7,37.6,24.06,SW,225,18.0,22.0,32,0.00,,,0.00,meteohub,2013-09-17 01:37:00,
2013-09-16 19:42:00,68.5,38.3,24.06,SW,225,17.0,22.0,33,0.00,,,0.00,meteohub,2013-09-17 01:42:00,
2013-09-16 19:47:00,68.4,38.1,24.05,SW,225,19.0,20.0,33,0.00,,,0.00,meteohub,2013-09-17 01:47:00,
2013-09-16 19:52:00,68.4,38.8,24.06,SW,225,17.0,20.0,34,0.00,,,0.00,meteohub,2013-09-17 01:52:00,
2013-09-16 19:57:00,68.2,39.6,24.06,SW,225,17.0,20.0,35,0.00,,,0.00,meteohub,2013-09-17 01:57:00,
2013-09-16 20:02:00,68.2,39.6,24.05,SW,225,17.0,20.0,35,0.00,,,0.00,meteohub,2013-09-17 02:02:00,
2013-09-16 20:07:00,68.2,39.6,24.05,SW,225,17.0,18.0,35,0.00,,,0.00,meteohub,2013-09-17 02:07:00,
2013-09-16 20:12:00,67.6,39.7,24.05,SSW,203,15.0,18.0,36,0.00,,,0.00,meteohub,2013-09-17 02:12:00,
2013-09-16 20:17:00,66.6,40.1,24.06,South,180,11.0,17.0,38,0.00,,,0.00,meteohub,2013-09-17 02:17:00,
2013-09-16 20:22:00,65.5,39.9,24.06,South,180,10.0,17.0,39,0.00,,,0.00,meteohub,2013-09-17 02:22:00,
2013-09-16 20:27:00,65.1,39.6,24.06,SE,135,8.0,15.0,39,0.00,,,0.00,meteohub,2013-09-17 02:27:00,
2013-09-16 20:32:00,64.8,39.2,24.06,SE,135,8.0,13.0,39,0.00,,,0.00,meteohub,2013-09-17 02:32:00,
2013-09-16 20:37:00,64.8,39.2,24.06,SE,135,8.0,10.0,39,0.00,,,0.00,meteohub,2013-09-17 02:37:00,
2013-09-16 20:42:00,64.6,39.0,24.06,South,180,8.0,9.0,39,0.00,,,0.00,meteohub,2013-09-17 02:42:00,
2013-09-16 20:47:00,65.1,39.6,24.06,South,180,8.0,9.0,39,0.00,,,0.00,meteohub,2013-09-17 02:47:00,
2013-09-16 20:52:00,65.5,39.9,24.07,South,180,8.0,9.0,39,0.00,,,0.00,meteohub,2013-09-17 02:52:00,
2013-09-16 20:57:00,65.5,39.9,24.07,South,180,9.0,10.0,39,0.00,,,0.00,meteohub,2013-09-17 02:57:00,
2013-09-16 21:02:00,64.9,39.4,24.07,SE,135,9.0,10.0,39,0.00,,,0.00,meteohub,2013-09-17 03:02:00,
2013-09-16 21:07:00,64.9,39.4,24.07,SE,135,9.0,9.0,39,0.00,,,0.00,meteohub,2013-09-17 03:07:00,
2013-09-16 21:12:00,64.2,40.6,24.07,South,180,10.0,10.0,42,0.00,,,0.00,meteohub,2013-09-17 03:12:00,
2013-09-16 21:17:00,64.0,40.5,24.07,SSE,158,10.0,10.0,42,0.00,,,0.00,meteohub,2013-09-17 03:17:00,
2013-09-16 21:22:00,64.0,40.5,24.07,South,180,10.0,10.0,42,0.00,,,0.00,meteohub,2013-09-17 03:22:00,
2013-09-16 21:27:00,64.0,41.2,24.07,South,180,9.0,11.0,43,0.00,,,0.00,meteohub,2013-09-17 03:27:00,
2013-09-16 21:32:00,64.2,41.2,24.07,South,180,11.0,11.0,43,0.00,,,0.00,meteohub,2013-09-17 03:32:00,
2013-09-16 21:37:00,64.6,41.0,24.07,South,180,11.0,12.0,42,0.00,,,0.00,meteohub,2013-09-17 03:37:00,
2013-09-16 21:42:00,64.9,41.4,24.08,South,180,11.0,15.0,42,0.00,,,0.00,meteohub,2013-09-17 03:42:00,
2013-09-16 21:47:00,64.6,41.5,24.07,South,180,15.0,15.0,43,0.00,,,0.00,meteohub,2013-09-17 03:47:00,
2013-09-16 21:52:00,64.0,42.3,24.07,South,180,13.0,16.0,45,0.00,,,0.00,meteohub,2013-09-17 03:52:00,
2013-09-16 21:57:00,64.0,41.7,24.08,South,180,9.0,16.0,44,0.00,,,0.00,meteohub,2013-09-17 03:57:00,
2013-09-16 22:02:00,63.7,41.4,24.08,South,180,8.0,16.0,44,0.00,,,0.00,meteohub,2013-09-17 04:02:00,
2013-09-16 22:07:00,63.7,41.4,24.08,South,180,8.0,14.0,44,0.00,,,0.00,meteohub,2013-09-17 04:07:00,
2013-09-16 22:12:00,63.7,42.4,24.08,South,180,9.0,10.0,46,0.00,,,0.00,meteohub,2013-09-17 04:12:00,
2013-09-16 22:17:00,63.7,42.4,24.08,South,180,10.0,10.0,46,0.00,,,0.00,meteohub,2013-09-17 04:17:00,
2013-09-16 22:22:00,63.9,43.2,24.08,South,180,12.0,12.0,47,0.00,,,0.00,meteohub,2013-09-17 04:22:00,
2013-09-16 22:27:00,64.0,43.3,24.08,SSW,203,11.0,12.0,47,0.00,,,0.00,meteohub,2013-09-17 04:27:00,
2013-09-16 22:32:00,64.2,43.5,24.09,South,180,8.0,12.0,47,0.00,,,0.00,meteohub,2013-09-17 04:32:00,
2013-09-16 22:37:00,64.2,43.0,24.08,South,180,9.0,12.0,46,0.00,,,0.00,meteohub,2013-09-17 04:37:00,
2013-09-16 22:42:00,64.2,42.4,24.09,South,180,8.0,11.0,45,0.00,,,0.00,meteohub,2013-09-17 04:42:00,
2013-09-16 22:47:00,64.4,42.6,24.09,South,180,7.0,10.0,45,0.00,,,0.00,meteohub,2013-09-17 04:47:00,
2013-09-16 22:52:00,64.4,43.2,24.09,SW,225,8.0,10.0,46,0.00,,,0.00,meteohub,2013-09-17 04:52:00,
2013-09-16 22:57:00,64.6,42.3,24.09,South,180,6.0,8.0,44,0.00,,,0.00,meteohub,2013-09-17 04:57:00,
2013-09-16 23:02:00,64.6,42.8,24.09,SW,225,7.0,8.0,45,0.00,,,0.00,meteohub,2013-09-17 05:02:00,
2013-09-16 23:07:00,64.6,42.8,24.09,SW,225,7.0,8.0,45,0.00,,,0.00,meteohub,2013-09-17 05:07:00,
2013-09-16 23:12:00,63.0,43.5,24.09,NW,315,14.0,14.0,49,0.00,,,0.00,meteohub,2013-09-17 05:12:00,
2013-09-16 23:17:00,62.2,43.9,24.09,NW,315,16.0,16.0,51,0.00,,,0.00,meteohub,2013-09-17 05:17:00,
2013-09-16 23:22:00,62.4,38.5,24.09,North,0,21.0,21.0,41,0.00,,,0.00,meteohub,2013-09-17 05:22:00,
2013-09-16 23:27:00,62.4,37.2,24.09,NW,315,20.0,23.0,39,0.00,,,0.00,meteohub,2013-09-17 05:27:00,
2013-09-16 23:32:00,62.1,37.4,24.08,North,0,21.0,23.0,40,0.00,,,0.00,meteohub,2013-09-17 05:32:00,
2013-09-16 23:37:00,61.9,37.2,24.09,NW,315,21.0,23.0,40,0.00,,,0.00,meteohub,2013-09-17 05:37:00,
2013-09-16 23:42:00,61.7,37.8,24.09,NW,315,23.0,23.0,41,0.00,,,0.00,meteohub,2013-09-17 05:42:00,
2013-09-16 23:47:00,61.2,37.9,24.09,WNW,293,21.0,23.0,42,0.00,,,0.00,meteohub,2013-09-17 05:47:00,
2013-09-16 23:52:00,61.0,37.8,24.09,NW,315,18.0,23.0,42,0.00,,,0.00,meteohub,2013-09-17 05:52:00,
2013-09-16 23:57:00,60.8,36.9,24.10,NW,315,20.0,23.0,41,0.00,,,0.00,meteohub,2013-09-17 05:57:00,